| time (UTC) | temp C | wind direction | speed KPH | gust KPH | rain 1hr cm | rain 24hr cm | rain mn cm | humidity % | barometer mb |
| 20260906091128 | 28 | 68 | 4.8 | 8.0 | 0.00 | 0.00 | 0.00 | 46 | 1023.2 |
| 20260906090128 | 27 | 62 | 8.0 | 9.7 | 0.00 | 0.00 | 0.00 | 46 | 1023.3 |
| 20260906085128 | 27 | 57 | 8.0 | 9.7 | 0.00 | 0.00 | 0.00 | 49 | 1023.2 |
| 20260906084129 | 27 | 60 | 9.7 | 14.5 | 0.00 | 0.00 | 0.00 | 49 | 1023.4 |
| 20260906083129 | 27 | 71 | 4.8 | 9.7 | 0.00 | 0.00 | 0.00 | 50 | 1023.3 |
| 20260906082127 | 27 | 60 | 9.7 | 16.1 | 0.00 | 0.00 | 0.00 | 50 | 1023.3 |
| 20260906081129 | 27 | 65 | 3.2 | 8.0 | 0.00 | 0.00 | 0.00 | 51 | 1023.2 |
| 20260906080127 | 27 | 68 | 4.8 | 8.0 | 0.00 | 0.00 | 0.00 | 52 | 1023.1 |
| 20260906075130 | 26 | 61 | 9.7 | 16.1 | 0.00 | 0.00 | 0.00 | 54 | 1023.0 |
| 20260906074131 | 26 | 66 | 6.4 | 9.7 | 0.00 | 0.00 | 0.00 | 54 | 1023.0 |
| 20260906073131 | 26 | 55 | 11.3 | 17.7 | 0.00 | 0.00 | 0.00 | 57 | 1023.2 |
| 20260906072128 | 26 | 60 | 4.8 | 8.0 | 0.00 | 0.00 | 0.00 | 57 | 1023.0 |
| 20260906071127 | 25 | 63 | 11.3 | 19.3 | 0.00 | 0.00 | 0.00 | 59 | 1022.9 |
| 20260906070131 | 25 | 61 | 8.0 | 16.1 | 0.00 | 0.00 | 0.00 | 60 | 1022.8 |
| 20260906065131 | 25 | 62 | 3.2 | 4.8 | 0.00 | 0.00 | 0.00 | 60 | 1022.7 |
| 20260906064132 | 25 | 56 | 4.8 | 8.0 | 0.00 | 0.00 | 0.00 | 64 | 1022.7 |
| 20260906063131 | 25 | 48 | 4.8 | 9.7 | 0.00 | 0.00 | 0.00 | 66 | 1022.6 |
| 20260906062131 | 25 | 319 | 4.8 | 4.8 | 0.00 | 0.00 | 0.00 | 65 | 1022.5 |
| 20260906061128 | 25 | 72 | 3.2 | 3.2 | 0.00 | 0.00 | 0.00 | 66 | 1022.3 |
| 20260906060130 | 25 | 65 | 4.8 | 6.4 | 0.00 | 0.00 | 0.00 | 67 | 1022.2 |
| 20260906055130 | 24 | 70 | 0.0 | 1.6 | 0.00 | 0.00 | 0.00 | 69 | 1022.2 |
| 20260906054128 | 24 | 73 | 3.2 | 4.8 | 0.00 | 0.00 | 0.00 | 69 | 1021.9 |
| 20260906053131 | 23 | 60 | 3.2 | 6.4 | 0.00 | 0.00 | 0.00 | 72 | 1021.8 |
| 20260906052130 | 23 | 62 | 3.2 | 3.2 | 0.00 | 0.00 | 0.00 | 75 | 1021.8 |
| 20260906051129 | 22 | 56 | 3.2 | 4.8 | 0.00 | 0.00 | 0.00 | 76 | 1021.5 |
| 20260906050128 | 22 | 74 | 0.0 | 1.6 | 0.00 | 0.00 | 0.00 | 77 | 1021.4 |
| 20260906045129 | 22 | 61 | 1.6 | 3.2 | 0.00 | 0.00 | 0.00 | 78 | 1021.4 |
| 20260906044130 | 22 | 68 | 3.2 | 6.4 | 0.00 | 0.00 | 0.00 | 78 | 1021.3 |
| 20260906043128 | 22 | 64 | 1.6 | 3.2 | 0.00 | 0.00 | 0.00 | 78 | 1021.3 |
| 20260906042129 | 22 | 295 | 3.2 | 4.8 | 0.00 | 0.00 | 0.00 | 77 | 1021.2 |
| 20260906041131 | 22 | 24 | 3.2 | 3.2 | 0.00 | 0.00 | 0.00 | 78 | 1021.1 |
| 20260906040127 | 22 | 286 | 0.0 | 0.0 | 0.00 | 0.00 | 0.00 | 78 | 1021.1 |
| 20260906035129 | 22 | 275 | 0.0 | 3.2 | 0.00 | 0.00 | 0.00 | 77 | 1021.0 |
| 20260906034131 | 22 | 85 | 1.6 | 3.2 | 0.00 | 0.00 | 0.00 | 76 | 1020.9 |
| 20260906033128 | 23 | 52 | 3.2 | 4.8 | 0.00 | 0.00 | 0.00 | 76 | 1020.9 |
| 20260906032131 | 23 | 51 | 1.6 | 3.2 | 0.00 | 0.00 | 0.00 | 76 | 1020.8 |
| 20260906031128 | 23 | 61 | 1.6 | 3.2 | 0.00 | 0.00 | 0.00 | 76 | 1020.8 |
| 20260906030129 | 23 | 50 | 1.6 | 1.6 | 0.00 | 0.00 | 0.00 | 76 | 1020.9 |
| 20260906025130 | 23 | 52 | 0.0 | 0.0 | 0.00 | 0.00 | 0.00 | 76 | 1020.9 |
| 20260906024128 | 23 | 68 | 1.6 | 3.2 | 0.00 | 0.00 | 0.00 | 75 | 1020.9 |
| 20260906023128 | 23 | 67 | 1.6 | 3.2 | 0.00 | 0.00 | 0.00 | 73 | 1020.8 |
| 20260906022130 | 23 | 66 | 0.0 | 1.6 | 0.00 | 0.00 | 0.00 | 73 | 1020.6 |
| 20260906021129 | 23 | 61 | 1.6 | 4.8 | 0.00 | 0.00 | 0.00 | 73 | 1020.7 |
| 20260906020128 | 23 | 56 | 3.2 | 3.2 | 0.00 | 0.00 | 0.00 | 73 | 1020.7 |
| 20260906015128 | 23 | 58 | 1.6 | 3.2 | 0.00 | 0.00 | 0.00 | 73 | 1020.6 |
| 20260906014131 | 23 | 3 | 1.6 | 3.2 | 0.00 | 0.00 | 0.00 | 75 | 1020.5 |
| 20260906013128 | 24 | 37 | 1.6 | 4.8 | 0.00 | 0.00 | 0.00 | 75 | 1020.4 |
| 20260906012129 | 24 | 351 | 1.6 | 3.2 | 0.00 | 0.00 | 0.00 | 77 | 1020.4 |
| 20260906011128 | 24 | 51 | 1.6 | 3.2 | 0.00 | 0.00 | 0.00 | 76 | 1020.3 |
| 20260906010130 | 24 | 67 | 3.2 | 6.4 | 0.00 | 0.00 | 0.00 | 77 | 1020.3 |
| 20260906005129 | 24 | 67 | 1.6 | 3.2 | 0.00 | 0.00 | 0.00 | 78 | 1020.5 |
| 20260906004129 | 24 | 63 | 3.2 | 6.4 | 0.00 | 0.00 | 0.00 | 80 | 1020.4 |
| 20260906003128 | 24 | 62 | 4.8 | 8.0 | 0.00 | 0.00 | 0.00 | 81 | 1020.4 |
| 20260906002130 | 24 | 64 | 3.2 | 6.4 | 0.00 | 0.00 | 0.00 | 83 | 1020.4 |
| 20260906001130 | 24 | 79 | 3.2 | 6.4 | 0.00 | 0.00 | 0.00 | 86 | 1020.4 |
| 20260906000128 | 24 | 75 | 1.6 | 3.2 | 0.00 | 0.00 | 0.00 | 86 | 1020.5 |
| 20260905235131 | 24 | 73 | 3.2 | 3.2 | 0.00 | 0.00 | 0.00 | 86 | 1020.4 |
| 20260905234129 | 24 | 65 | 3.2 | 6.4 | 0.00 | 0.00 | 0.00 | 86 | 1020.3 |
| 20260905233128 | 24 | 46 | 1.6 | 3.2 | 0.00 | 0.00 | 0.00 | 86 | 1020.3 |
| 20260905232128 | 25 | 49 | 0.0 | 0.0 | 0.00 | 0.00 | 0.00 | 86 | 1020.1 |
| 20260905231127 | 25 | 309 | 0.0 | 3.2 | 0.00 | 0.00 | 0.00 | 86 | 1020.2 |
| 20260905230131 | 25 | 350 | 3.2 | 4.8 | 0.00 | 0.00 | 0.00 | 85 | 1020.3 |
| 20260905225131 | 25 | 57 | 1.6 | 4.8 | 0.00 | 0.00 | 0.00 | 86 | 1020.2 |
| 20260905224130 | 25 | 18 | 3.2 | 4.8 | 0.00 | 0.00 | 0.00 | 86 | 1020.1 |
| 20260905223130 | 25 | 48 | 1.6 | 3.2 | 0.00 | 0.00 | 0.00 | 86 | 1020.2 |
| 20260905222129 | 25 | 59 | 1.6 | 3.2 | 0.00 | 0.00 | 0.00 | 88 | 1020.0 |
| 20260905221128 | 25 | 66 | 0.0 | 0.0 | 0.00 | 0.00 | 0.00 | 90 | 1019.9 |
| 20260905220131 | 25 | 66 | 1.6 | 3.2 | 0.00 | 0.00 | 0.00 | 88 | 1019.8 |
| 20260905215127 | 25 | 75 | 3.2 | 3.2 | 0.00 | 0.00 | 0.00 | 88 | 1019.7 |
| 20260905214128 | 25 | 79 | 1.6 | 4.8 | 0.00 | 0.00 | 0.00 | 88 | 1019.5 |
| 20260905213129 | 25 | 336 | 0.0 | 3.2 | 0.00 | 0.00 | 0.00 | 87 | 1019.5 |
| 20260905212131 | 25 | 37 | 0.0 | 0.0 | 0.00 | 0.00 | 0.00 | 86 | 1019.3 |
| 20260905211129 | 26 | 65 | 0.0 | 3.2 | 0.00 | 0.00 | 0.00 | 85 | 1019.2 |
| 20260905210128 | 26 | 61 | 0.0 | 0.0 | 0.00 | 0.00 | 0.00 | 85 | 1019.1 |
| 20260905205128 | 26 | 61 | 0.0 | 0.0 | 0.00 | 0.00 | 0.00 | 85 | 1019.1 |
| 20260905204129 | 26 | 61 | 0.0 | 0.0 | 0.00 | 0.00 | 0.00 | 82 | 1019.1 |
| 20260905203128 | 27 | 61 | 0.0 | 1.6 | 0.00 | 0.00 | 0.00 | 81 | 1019.1 |
| 20260905202129 | 27 | 58 | 3.2 | 3.2 | 0.00 | 0.00 | 0.00 | 80 | 1019.1 |
| 20260905201132 | 27 | 58 | 3.2 | 3.2 | 0.00 | 0.00 | 0.00 | 78 | 1019.0 |
| 20260905200128 | 27 | 58 | 1.6 | 3.2 | 0.00 | 0.00 | 0.00 | 78 | 1018.8 |
| 20260905195128 | 27 | 58 | 1.6 | 4.8 | 0.00 | 0.00 | 0.00 | 78 | 1018.8 |
| 20260905194130 | 27 | 59 | 3.2 | 3.2 | 0.00 | 0.00 | 0.00 | 77 | 1018.6 |
| 20260905193130 | 28 | 58 | 3.2 | 4.8 | 0.00 | 0.00 | 0.00 | 76 | 1018.4 |
| 20260905192131 | 28 | 59 | 3.2 | 4.8 | 0.00 | 0.00 | 0.00 | 75 | 1018.3 |
| 20260905191130 | 28 | 61 | 3.2 | 3.2 | 0.00 | 0.00 | 0.00 | 75 | 1018.2 |
| 20260905190129 | 28 | 59 | 1.6 | 4.8 | 0.00 | 0.00 | 0.00 | 75 | 1018.0 |
| 20260905185128 | 28 | 60 | 0.0 | 3.2 | 0.00 | 0.00 | 0.00 | 75 | 1017.9 |
| 20260905184128 | 28 | 60 | 3.2 | 3.2 | 0.00 | 0.00 | 0.00 | 73 | 1017.7 |
| 20260905183128 | 28 | 60 | 3.2 | 4.8 | 0.00 | 0.00 | 0.00 | 73 | 1017.6 |
| 20260905182129 | 28 | 62 | 3.2 | 4.8 | 0.00 | 0.00 | 0.00 | 73 | 1017.3 |
| 20260905181129 | 29 | 73 | 3.2 | 6.4 | 0.00 | 0.00 | 0.00 | 72 | 1017.3 |
| 20260905180131 | 29 | 64 | 3.2 | 4.8 | 0.00 | 0.00 | 0.00 | 72 | 1017.2 |
| 20260905175130 | 29 | 65 | 3.2 | 4.8 | 0.00 | 0.00 | 0.00 | 71 | 1017.1 |
| 20260905174128 | 30 | 65 | 3.2 | 4.8 | 0.00 | 0.00 | 0.00 | 70 | 1016.9 |
| 20260905173128 | 30 | 61 | 3.2 | 6.4 | 0.00 | 0.00 | 0.00 | 69 | 1016.8 |
| 20260905172131 | 30 | 59 | 1.6 | 4.8 | 0.00 | 0.00 | 0.00 | 67 | 1016.7 |
| 20260905171130 | 30 | 51 | 1.6 | 4.8 | 0.00 | 0.00 | 0.00 | 67 | 1016.6 |
| 20260905170130 | 30 | 59 | 1.6 | 3.2 | 0.00 | 0.00 | 0.00 | 66 | 1016.6 |
| 20260905165129 | 31 | 160 | 0.0 | 1.6 | 0.00 | 0.00 | 0.00 | 63 | 1016.4 |
| 20260905164129 | 31 | 91 | 3.2 | 4.8 | 0.00 | 0.00 | 0.00 | 64 | 1016.3 |
| 20260905163132 | 30 | 87 | 3.2 | 4.8 | 0.00 | 0.00 | 0.00 | 63 | 1016.3 |
| 20260905162129 | 32 | 198 | 0.0 | 1.6 | 0.00 | 0.00 | 0.00 | 43 | 1016.3 |
| 20260905161128 | 32 | 198 | 0.0 | 1.6 | 0.00 | 0.00 | 0.00 | 41 | 1016.2 |
| 20260905160129 | 32 | 182 | 0.0 | 0.0 | 0.00 | 0.00 | 0.00 | 42 | 1016.3 |
| 20260905155128 | 32 | 240 | 1.6 | 1.6 | 0.00 | 0.00 | 0.00 | 42 | 1016.2 |
| 20260905154129 | 33 | 229 | 1.6 | 3.2 | 0.00 | 0.00 | 0.00 | 42 | 1016.2 |
| 20260905153128 | 33 | 205 | 1.6 | 3.2 | 0.00 | 0.00 | 0.00 | 42 | 1016.2 |
| 20260905152127 | 31 | 203 | 3.2 | 6.4 | 0.00 | 0.00 | 0.00 | 46 | 1016.1 |
| 20260905151129 | 32 | 228 | 0.0 | 1.6 | 0.00 | 0.00 | 0.00 | 42 | 1016.0 |
| 20260905150128 | 32 | 181 | 1.6 | 3.2 | 0.00 | 0.00 | 0.00 | 43 | 1016.1 |
| 20260905145131 | 32 | 267 | 3.2 | 6.4 | 0.00 | 0.00 | 0.00 | 45 | 1016.1 |
| 20260905144128 | 32 | 227 | 4.8 | 8.0 | 0.00 | 0.00 | 0.00 | 45 | 1016.1 |
| 20260905143128 | 33 | 237 | 1.6 | 3.2 | 0.00 | 0.00 | 0.00 | 44 | 1016.2 |
| 20260905142132 | 32 | 15 | 1.6 | 3.2 | 0.00 | 0.00 | 0.00 | 43 | 1016.2 |
| 20260905141129 | 31 | 353 | 0.0 | 0.0 | 0.00 | 0.00 | 0.00 | 45 | 1016.2 |
| 20260905140129 | 31 | 344 | 4.8 | 6.4 | 0.00 | 0.00 | 0.00 | 46 | 1016.1 |
| 20260905135130 | 32 | 192 | 0.0 | 3.2 | 0.00 | 0.00 | 0.00 | 46 | 1016.3 |
| 20260905134127 | 32 | 254 | 1.6 | 3.2 | 0.00 | 0.00 | 0.00 | 49 | 1016.4 |
| 20260905133132 | 31 | 178 | 1.6 | 3.2 | 0.00 | 0.00 | 0.00 | 49 | 1016.4 |
| 20260905132131 | 31 | 206 | 0.0 | 3.2 | 0.00 | 0.00 | 0.00 | 50 | 1016.5 |
| 20260905131130 | 31 | 158 | 1.6 | 3.2 | 0.00 | 0.00 | 0.00 | 48 | 1016.5 |
| 20260905130132 | 31 | 289 | 1.6 | 4.8 | 0.00 | 0.00 | 0.00 | 50 | 1016.6 |
| 20260905125129 | 30 | 174 | 0.0 | 1.6 | 0.00 | 0.00 | 0.00 | 51 | 1016.8 |
| 20260905124128 | 31 | 224 | 1.6 | 1.6 | 0.00 | 0.00 | 0.00 | 51 | 1016.8 |
| 20260905123131 | 30 | 203 | 4.8 | 8.0 | 0.00 | 0.00 | 0.00 | 52 | 1017.0 |
| 20260905122132 | 30 | 266 | 4.8 | 11.3 | 0.00 | 0.00 | 0.00 | 52 | 1017.1 |
| 20260905121131 | 30 | 259 | 4.8 | 8.0 | 0.00 | 0.00 | 0.00 | 54 | 1017.3 |
| 20260905120130 | 30 | 56 | 3.2 | 4.8 | 0.00 | 0.00 | 0.00 | 57 | 1017.2 |
| 20260905115127 | 30 | 153 | 1.6 | 3.2 | 0.00 | 0.00 | 0.00 | 53 | 1017.3 |
| 20260905114128 | 30 | 275 | 1.6 | 4.8 | 0.00 | 0.00 | 0.00 | 56 | 1017.2 |
| 20260905113128 | 30 | 214 | 1.6 | 3.2 | 0.00 | 0.00 | 0.00 | 54 | 1017.3 |
| 20260905112127 | 30 | 69 | 3.2 | 3.2 | 0.00 | 0.00 | 0.00 | 59 | 1017.4 |
| 20260905111128 | 28 | 26 | 3.2 | 8.0 | 0.00 | 0.00 | 0.00 | 57 | 1017.3 |
| 20260905110129 | 28 | 69 | 1.6 | 3.2 | 0.00 | 0.00 | 0.00 | 59 | 1017.4 |
| 20260905105127 | 28 | 61 | 1.6 | 3.2 | 0.00 | 0.00 | 0.00 | 64 | 1017.4 |
| 20260905104129 | 28 | 58 | 0.0 | 3.2 | 0.00 | 0.00 | 0.00 | 61 | 1017.4 |
| 20260905103129 | 28 | 304 | 3.2 | 4.8 | 0.00 | 0.00 | 0.00 | 64 | 1017.6 |
| 20260905102131 | 28 | 355 | 4.8 | 4.8 | 0.00 | 0.00 | 0.00 | 66 | 1017.5 |
| 20260905101128 | 29 | 330 | 3.2 | 3.2 | 0.00 | 0.00 | 0.00 | 65 | 1017.5 |
| 20260905100128 | 28 | 292 | 1.6 | 3.2 | 0.00 | 0.00 | 0.00 | 66 | 1017.5 |
| 20260905095124 | 27 | 308 | 3.2 | 3.2 | 0.00 | 0.00 | 0.00 | 67 | 1017.5 |
| 20260905094218 | 27 | 312 | 1.6 | 3.2 | 0.00 | 0.00 | 0.00 | 69 | 1017.6 |
| 20260905094124 | 27 | 312 | 1.6 | 3.2 | 0.00 | 0.00 | 0.00 | 69 | 1017.6 |
| 20260905094000 | 27 | 312 | 3.2 | 4.8 | 0.00 | 0.00 | 0.00 | 70 | 1017.7 |
| 20260905093727 | 27 | 316 | 1.6 | 3.2 | 0.00 | 0.00 | 0.00 | 69 | 1017.7 |
| 20260905093122 | 28 | 330 | 4.8 | 6.4 | 0.00 | 0.00 | 0.00 | 69 | 1017.7 |
| 20260905092524 | 28 | 337 | 1.6 | 3.2 | 0.00 | 0.00 | 0.00 | 70 | 1017.6 |